Theta_e
298 297 297 297 297 297 297 296 296 295 295 296 296 294 293 292 289 288 287 287 287 287 290 294 295 297 299 300 300 301 301 302 302 302 302 302 301 301 301 304 310 319 328 328
297 298 298 298 298 297 297 296 295 295 295 296 294 292 291 291 290 288 286 286 286 286 289 293 296 296 298 300 300 300 301 302 302 302 301 301 302 302 302 306 311 320 328 328
297 298 298 297 297 297 296 296 295 294 294 295 293 292 292 291 290 287 286 285 284 284 285 288 292 295 297 300 300 300 300 301 302 301 301 301 302 303 304 312 321 324 325 328
297 299 298 297 298 296 290 295 294 294 292 294 295 294 294 289 289 286 285 283 283 283 284 287 289 293 296 298 299 300 300 301 302 302 302 302 303 303 306 314 322 325 328 327
298 298 298 293 298 296 292 293 293 295 293 291 298 293 290 288 287 285 283 282 281 282 283 284 287 289 292 298 299 300 301 302 302 302 302 302 302 307 308 313 322 324 327 326
297 297 295 297 296 295 293 291 294 297 294 287 293 292 290 285 285 283 282 280 281 282 282 283 285 287 292 295 299 301 301 301 302 302 304 303 314 316 312 315 319 325 325 326
295 297 296 295 293 294 290 290 292 293 290 290 293 292 289 285 283 281 280 279 280 281 282 283 284 287 290 292 297 300 301 302 303 304 307 310 312 314 316 317 319 322 325 324
291 296 294 293 290 290 292 287 293 295 295 293 294 288 291 284 282 280 279 280 280 280 281 282 283 285 287 289 292 297 301 302 303 305 307 310 312 313 317 316 312 321 322 321
287 292 295 293 292 291 294 292 292 289 292 293 293 292 287 287 283 279 278 280 279 280 280 281 282 283 285 287 290 292 296 299 301 304 306 308 310 311 311 313 313 318 321 321
290 293 295 294 291 292 293 292 292 292 293 295 297 294 288 281 280 278 277 279 279 279 280 281 282 283 284 286 288 290 292 295 297 300 302 304 303 304 302 307 312 312 314 312
290 290 295 293 286 287 291 291 291 291 292 291 294 296 282 281 278 276 278 279 279 279 280 280 281 282 283 284 287 289 290 292 294 296 297 297 296 299 299 302 303 303 306 306
293 289 291 289 284 288 291 288 288 287 293 291 291 291 284 281 279 280 279 279 279 279 280 280 280 281 282 283 284 286 287 289 289 290 292 291 292 293 295 297 297 300 301 302
291 293 290 294 292 292 287 291 290 288 289 289 289 288 282 280 280 279 279 278 278 278 279 280 280 280 281 282 282 283 284 285 286 287 289 289 289 290 291 296 297 299 300 297
294 291 290 294 292 282 288 287 289 288 283 285 288 288 285 282 280 278 278 277 278 278 279 279 280 280 280 280 281 281 282 283 284 286 287 288 286 285 285 284 288 289 287 288
291 290 288 284 280 282 287 285 285 284 280 287 287 285 285 280 277 277 278 278 278 278 279 279 279 280 280 280 281 282 282 283 284 285 286 284 283 282 283 284 287 285 285 284
291 291 288 291 281 278 285 285 282 283 279 280 276 281 278 280 278 277 277 277 277 277 278 278 278 279 279 280 280 281 282 285 290 291 288 288 286 282 282 283 284 285 285 284
289 288 287 290 285 289 290 288 279 278 275 281 286 282 274 275 276 277 277 277 277 277 278 279 280 280 280 280 281 283 285 287 286 283 282 282 283 283 284 284 284 284 284 284
289 288 291 294 284 289 289 275 279 283 280 275 275 275 276 279 279 278 278 277 278 279 280 280 281 282 283 284 284 282 282 282 282 282 283 283 283 282 283 283 284 284 284 284
289 290 288 290 295 290 293 288 284 289 292 279 280 274 283 281 280 281 279 278 278 278 279 280 280 281 281 282 282 282 282 282 283 283 282 282 282 283 283 283 283 282 283 283
293 288 287 292 292 289 289 282 287 285 295 282 284 281 282 282 283 279 280 278 278 279 279 280 281 281 281 281 281 282 282 282 282 282 282 283 282 282 282 282 282 282 282 282
293 292 289 285 296 290 286 288 290 295 298 287 289 288 284 281 285 284 281 280 280 280 281 282 282 283 283 282 281 282 281 282 282 282 281 281 282 282 282 282 281 281 281 282
291 290 289 293 296 295 289 290 293 294 291 294 292 291 288 287 286 283 281 281 281 282 282 282 282 281 281 281 281 282 281 281 282 281 281 281 281 281 281 282 282 282 282 282
294 294 293 294 295 290 293 294 297 296 297 294 295 293 291 287 285 283 282 281 281 281 282 282 281 281 281 281 280 281 280 280 280 280 280 281 281 282 281 281 281 281 281 281
293 292 293 293 290 291 295 296 297 298 298 297 296 294 290 289 285 283 282 282 282 281 281 281 280 281 281 280 280 280 280 279 279 280 281 281 281 282 281 281 281 281 281 280
294 292 293 292 292 293 296 298 299 297 299 296 294 293 292 290 287 285 284 283 283 283 282 282 282 281 281 281 280 280 281 281 281 281 281 282 282 281 281 281 280 280 279 279
292 294 296 296 297 297 297 298 299 297 298 298 295 292 291 290 289 287 286 285 284 284 284 283 283 283 283 282 282 282 282 282 281 281 282 282 282 281 281 280 280 279 279 279
Wind_Speed
4 4 3 5 3 5 6 9 10 11 9 10 4 3 6 7 15 18 22 23 25 29 25 23 21 17 11 7 6 4 10 13 12 13 16 19 20 18 19 20 23 20 19 21
4 1 3 6 5 5 8 11 6 8 3 7 3 4 5 7 10 18 20 24 24 33 29 25 22 23 16 7 5 5 7 10 12 14 17 19 19 18 16 17 21 21 19 24
2 2 6 5 7 11 8 4 5 8 8 1 3 5 1 5 6 22 21 22 25 27 31 29 25 22 20 14 5 5 5 8 12 15 18 19 19 19 15 12 19 20 22 24
4 3 4 6 5 6 6 5 11 11 2 1 3 4 2 8 9 17 24 27 29 33 30 28 26 22 20 15 11 6 5 7 11 14 17 17 18 18 11 15 15 18 18 20
2 4 4 4 9 5 9 17 11 5 2 3 3 0 2 6 13 19 22 27 28 31 29 29 26 21 19 15 12 10 7 7 10 13 17 19 17 15 16 15 15 25 26 25
5 6 2 0 10 1 12 5 1 2 2 2 3 3 3 3 7 15 20 25 28 30 29 27 23 21 17 15 11 10 9 7 9 12 10 10 10 13 15 15 18 22 28 29
5 1 3 6 6 3 9 6 3 4 4 5 4 2 4 3 3 7 16 25 28 30 30 30 29 24 20 18 15 12 10 9 7 7 6 5 8 12 15 17 21 25 29 27
3 6 5 4 4 4 5 3 2 3 4 5 4 3 4 6 5 14 18 19 23 28 29 27 25 22 20 19 17 12 7 7 6 4 4 5 7 11 13 16 25 28 28 29
3 5 1 4 1 2 5 4 1 2 3 3 3 2 3 4 9 13 18 21 24 30 30 26 22 20 18 18 17 14 10 7 5 3 1 4 6 8 16 23 22 24 25 24
3 4 2 3 3 3 3 4 1 0 3 4 5 4 4 10 16 14 14 20 25 29 27 24 21 19 16 15 14 12 11 10 8 5 4 8 10 12 18 22 23 25 26 27
4 3 2 3 2 3 3 3 2 2 1 1 4 4 3 4 9 10 12 18 21 25 22 20 18 16 14 13 12 12 12 10 8 5 7 10 14 18 23 27 30 34 34 34
4 3 3 7 4 4 3 4 2 2 3 2 1 5 3 4 6 11 15 17 18 18 17 17 16 15 14 14 13 12 12 13 16 16 16 22 27 28 31 38 43 43 45 42
3 0 4 7 3 2 1 4 2 3 1 3 0 6 4 3 9 14 15 18 18 16 16 14 15 16 15 14 15 14 15 18 22 26 29 34 39 41 42 45 46 46 44 44
4 2 6 5 7 2 6 2 1 3 2 2 5 11 8 7 10 14 16 17 15 15 14 14 16 16 17 19 18 21 21 22 27 33 38 40 41 43 44 45 48 47 45 43
3 2 2 6 2 3 5 5 1 4 4 4 3 4 10 6 7 15 20 19 16 15 14 15 16 17 18 20 21 23 25 28 32 38 43 45 44 44 43 43 45 44 43 42
1 2 2 4 3 2 4 5 4 3 3 6 1 5 3 3 6 7 8 8 9 9 9 11 16 17 19 23 24 28 33 39 39 40 41 38 39 41 41 41 41 40 39 36
1 2 2 4 3 0 5 6 4 3 3 4 1 5 1 4 3 2 3 5 8 9 12 15 17 19 21 24 29 33 35 36 39 39 38 37 37 36 34 35 35 35 34 31
4 3 1 2 4 4 6 1 4 5 5 6 3 4 4 2 1 1 4 7 11 14 15 17 21 22 24 26 28 31 32 34 34 36 35 33 32 33 31 31 31 30 29 28
3 3 1 2 1 7 1 4 6 6 6 9 7 3 7 8 1 3 7 10 13 15 17 17 18 22 24 27 28 28 29 30 30 30 30 29 28 28 27 28 28 28 27 26
4 3 3 2 4 4 7 4 7 3 4 14 14 10 13 12 3 4 12 13 15 16 17 18 19 18 21 24 26 26 27 27 27 26 25 24 24 24 24 24 24 23 22 22
2 2 3 3 4 7 6 7 9 5 6 22 28 24 20 4 2 16 17 17 17 16 16 18 20 21 21 20 21 22 23 23 24 22 22 21 20 19 19 19 19 19 18 16
7 7 4 3 1 5 12 7 7 4 4 29 31 31 29 7 10 18 19 18 18 16 16 17 19 20 20 18 17 20 20 20 20 19 19 18 17 17 16 15 16 14 12 10
3 6 4 8 5 2 38 6 19 3 20 28 30 30 25 18 23 23 22 20 19 18 18 18 17 18 19 18 16 16 18 17 16 15 14 13 13 13 12 10 10 9 9 8
5 5 3 3 2 8 28 25 15 9 15 24 24 27 27 23 26 25 24 23 22 21 20 20 20 20 19 19 17 14 15 15 12 10 10 10 9 9 8 7 7 6 6 5
3 7 4 6 7 4 19 28 28 19 19 22 25 25 25 25 28 27 27 25 23 22 21 19 18 17 17 17 15 13 12 12 10 9 8 7 6 5 4 4 4 3 4 6
11 7 6 6 7 4 6 9 30 26 26 28 27 28 26 25 26 27 26 24 23 23 22 21 20 19 18 17 16 14 13 13 11 8 5 4 3 2 2 2 2 4 7 11
Wind_Direction
11 43 340 298 251 228 260 290 284 294 307 312 306 327 346 359 14 1 1 358 353 350 0 9 1 347 325 277 261 233 216 228 249 268 276 279 273 265 256 249 248 245 227 221
10 340 274 278 276 291 299 300 284 296 305 332 32 295 309 9 18 8 3 354 353 355 5 11 9 8 4 333 260 250 223 224 247 268 272 267 267 267 260 246 261 245 233 229
161 259 300 321 327 338 318 217 289 286 327 179 144 274 278 346 347 3 1 354 356 355 347 2 6 13 14 25 31 298 255 234 255 266 266 260 264 275 264 248 250 249 221 220
232 273 303 332 315 13 316 196 316 291 92 250 153 283 140 348 345 0 355 353 350 350 357 5 2 11 15 8 5 335 274 255 262 266 264 264 265 279 261 262 260 234 217 215
243 310 338 9 325 1 251 312 290 235 155 60 194 108 236 1 343 345 347 348 347 351 355 354 359 1 8 11 5 351 318 285 272 273 270 262 268 272 251 259 248 210 212 194
267 294 133 277 319 223 326 335 218 84 75 12 233 134 288 350 333 328 338 341 344 347 350 358 1 4 11 13 21 24 357 329 307 294 287 269 264 257 248 255 246 188 179 185
329 284 30 43 323 340 16 351 353 357 360 231 262 127 249 171 356 324 326 331 341 347 352 359 2 8 9 8 17 23 15 352 331 316 297 257 236 241 245 256 214 174 191 191
44 334 25 355 125 243 357 90 51 296 316 296 316 251 286 173 96 355 339 341 346 353 357 5 5 6 5 6 18 26 31 21 349 326 258 227 221 235 239 217 181 172 166 161
58 284 62 66 351 151 333 39 255 255 215 295 268 236 135 237 353 354 348 348 349 353 357 3 6 8 10 16 18 19 28 27 3 331 252 163 182 197 182 186 162 160 164 162
224 340 138 124 355 14 93 331 113 223 341 300 305 292 257 337 334 340 345 349 346 355 359 5 8 10 16 24 26 30 41 46 45 36 137 149 148 152 151 148 144 143 144 142
153 113 307 69 351 209 350 360 356 277 222 247 308 289 168 260 299 311 328 345 349 353 357 5 11 19 25 34 38 44 52 60 71 85 122 134 129 143 145 141 136 131 128 128
187 154 285 227 250 244 121 219 197 116 308 281 260 278 154 232 294 335 339 350 355 356 1 11 23 33 36 43 54 63 75 90 97 106 120 115 115 121 124 123 121 120 120 120
211 174 11 358 32 280 173 233 190 189 337 247 213 278 165 210 1 350 347 354 359 2 19 30 40 48 55 63 73 81 91 100 111 115 118 116 113 116 116 117 118 118 116 111
140 144 148 196 223 156 315 243 269 148 123 244 235 293 310 347 348 340 351 359 5 19 30 44 56 66 69 77 85 92 101 110 115 116 116 115 111 109 109 111 110 107 105 105
130 213 175 259 234 159 265 260 232 195 202 181 249 267 297 330 335 339 347 356 8 25 37 56 66 74 83 90 97 105 108 111 115 113 111 109 108 109 110 109 107 109 108 106
35 256 92 305 344 164 291 253 227 191 253 266 271 285 254 338 337 354 356 352 10 30 56 80 93 103 103 107 110 111 113 113 111 109 107 106 110 114 110 107 107 108 105 103
103 115 52 278 304 55 340 236 200 254 219 175 33 227 321 320 310 258 74 56 53 66 86 98 101 104 109 111 113 111 111 111 109 109 110 111 110 109 109 109 107 105 104 106
136 113 135 283 357 16 246 203 164 207 233 210 302 242 174 225 289 209 123 104 95 88 93 96 98 96 99 103 105 107 109 109 110 111 112 113 115 113 110 107 103 103 103 98
129 140 99 101 210 289 131 215 167 168 269 183 196 202 160 171 200 207 162 134 109 103 100 96 99 107 111 109 108 109 108 108 111 110 113 112 110 109 108 104 105 101 96 92
127 115 123 153 114 191 235 247 188 151 309 178 181 176 185 176 122 233 170 141 116 106 103 101 102 106 113 115 119 119 117 118 115 115 115 113 109 106 104 101 100 96 90 88
201 218 178 187 238 284 236 166 152 85 240 169 178 185 179 208 228 149 155 136 122 119 122 126 128 131 127 126 128 127 126 124 121 118 114 111 108 106 103 99 93 85 79 73
173 157 196 147 207 303 159 114 170 207 165 173 176 182 185 184 160 161 155 145 136 136 137 136 137 138 137 139 141 137 133 125 124 123 121 119 113 102 90 79 76 73 69 61
282 192 186 189 214 203 180 183 208 234 169 181 182 184 185 177 171 171 165 159 153 153 152 149 152 151 148 152 154 148 137 126 120 119 115 108 100 96 92 84 79 71 64 48
243 180 219 35 277 216 202 207 191 204 190 183 186 183 186 183 178 177 175 170 168 165 165 165 167 169 165 162 160 159 142 131 131 134 126 116 111 104 97 83 70 59 48 40
200 143 194 264 266 243 230 221 215 203 194 187 183 190 191 190 184 185 181 179 175 173 174 174 173 176 174 168 168 168 153 144 151 164 152 131 117 105 93 82 66 54 44 37
189 187 175 221 231 206 165 216 210 202 197 193 190 186 194 197 195 191 191 187 184 183 182 182 182 185 185 184 182 183 180 174 170 168 158 162 164 157 127 80 39 31 23 19